Regional Weather Roundup
Issued by NWS State College, PA

Home | Current Version | Previous Version | Graphics & Text | Print | Product List | Glossary Off
Versions: 1 2 3 4 5 6 7 8 9 10 11 12 13 14 15 16 17 18 19 20 21 22 23 24 25 26 27 28 29 30 31 32 33 34 35 36 37 38 39 40 41 42 43 44 45 46 47 48 49 50

554
ASUS41 KCTP 250303
RWRCTP

REGIONAL WEATHER ROUNDUP
NATIONAL WEATHER SERVICE STATE COLLEGE PA
1100 PM EDT TUE MAY 24 2016

Note: "fair" indicates few or no clouds below 12,000 feet with no
significant weather and/or obstructions to visibility.

* = STATION THAT DOES NOT REPORT PRECIPITATION /E.G. RAIN...SNOW...ETC/
    THUNDER OR FOG.

PAZ002>004-007>009-013>016-020>023-029>032-250400-
WESTERN PENNSYLVANIA

CITY           SKY/WX    TMP DP  RH WIND       PRES   REMARKS
ERIE           CLEAR     63  38  39 S7        30.05R
MEADVILLE      CLEAR     60  39  45 S3        30.09R
FRANKLIN*      CLEAR     61  39  44 SW6       30.12R
NEW CASTLE     FAIR      56  50  80 CALM      30.10R
BEAVER COUNTY  NOT AVBL
BUTLER*        CLEAR     61  48  63 N5        30.14R
PITTSBURGH INT PTCLDY    68  49  50 SW7       30.10R
PITTSBURGH     CLEAR     69  49  48 SW9       30.10R
INDIANA*       PTCLDY    59  52  77 CALM      30.14R
LATROBE        MOCLDY    59  54  82 CALM      30.12R
WASHINGTON CO* CLEAR     55  52  88 CALM      30.13R
$$

PAZ004>006-010>012-017>019-024>028-033>037-041-042-045-046-049>053-250400-
CENTRAL PENNSYLVANIA

CITY           SKY/WX    TMP DP  RH WIND       PRES   REMARKS
BRADFORD       CLEAR     51  39  63 CALM      30.10R
DUBOIS         CLEAR     63  38  39 CALM      30.10R
CLEARFIELD     CLEAR     58  44  60 N7        30.10R
JOHNSTOWN      CLEAR     61  43  51 SW6       30.13R
ALTOONA        CLEAR     62  45  53 SW3       30.11R
STATE COLLEGE  CLEAR     64  45  48 W6        30.08R
WILLIAMSPORT   CLEAR     60  44  55 CALM      30.02R
SELINSGROVE    CLEAR     57  51  80 CALM      30.03R
FT INDIANTOWN  CLEAR     71  46  41 W5        30.02R
CAPITAL CITY   CLEAR     69  46  43 W9        30.02R
HARRISBURG     PTCLDY    70  47  43 NW12      30.01R
YORK           CLEAR     68  47  46 W6        30.03R
$$

PAZ038>040-043-044-047-048-054-055-060>062-067>071-250400-
EASTERN PENNSYLVANIA

CITY           SKY/WX    TMP DP  RH WIND       PRES   REMARKS
SCRANTON       CLEAR     62  43  49 SE7       30.01R
MOUNT POCONO   CLEAR     44  44 100 CALM      30.05R
ALLENTOWN      CLEAR     61  52  72 NE3       30.01R
QUAKERTOWN*    CLEAR     59  55  88 CALM      30.02R
READING        CLEAR     68  48  48 N5        29.99R
LANCASTER      CLEAR     62  50  64 NW6       30.01R
COATESVILLE    CLEAR     68  46  45 W8        30.02R
POTTSTOWN      CLEAR     64  53  67 NE5       30.01R
BLUE BELL      CLEAR     61  54  77 NE6       29.99R
DOYLESTOWN     CLEAR     60  52  74 CALM      30.00R
WILLOW GROVE   NOT AVBL
NORTH PHILA    CLEAR     65  54  67 N3        30.01R
PHILADELPHIA   CLEAR     73  47  39 N5        29.99R
$$




USA.gov is the U.S. government's official web portal to all federal, state and local government web resources and services.